Weather History for Dothan, AL

Change the Weather History Date:

Wednesday, November 21, 2012

  Actual Average Record
Temperature  
Mean Temperature 60 °F 57 °F  
Max Temperature 75 °F 69 °F 82 °F (1942)
Min Temperature 45 °F 45 °F 28 °F (1951)
Degree Days  
Heating Degree Days 5 9  
Month to date heating degree days 168 130  
Since 1 July heating degree days 221 189  
Growing Degree Days 9 (Base 50)    
Moisture  
Dew Point 45 °F    
Average Humidity 67    
Maximum Humidity 97    
Minimum Humidity 34    
Precipitation  
Precipitation 0.00 in 0.17 in 1.27 in (1945)
Month to date precipitation 0.09 2.60  
Year to date precipitation 35.96 47.99  
Sea Level Pressure  
Sea Level Pressure 30.16 in    
Wind  
Wind Speed 5 mph (NNW)    
Max Wind Speed 10 mph    
Max Gust Speed -    
Visibility 10 miles    
Events      
T = Trace of Precipitation, MM = Missing Value Source: NWS Daily Summary

Daily Weather History Graph

Daily Weather History Graph

Search for Another Location

Airport:

Trip Planner

Search our weather history database for the weather conditions in past years. The results will help you decide how hot, cold, wet, or windy it might be!

Date:

Astronomy

Nov. 21, 2012 Rise Set
Actual Time 6:14 AM CST 4:40 PM CST
Civil Twilight 5:48 AM CST 5:06 PM CST
Nautical Twilight 5:19 AM CST 5:36 PM CST
Astronomical Twilight 4:50 AM CST 6:05 PM CST
Moon 12:35 PM CST (11/21) No Moon Set
Length of Visible Light 11h 17m
Length of Day
10h 25m
First Quarter, 62% of the Moon is Illuminated
Nov 21
First Quarter
Nov 28
Full
Dec 6
Last Quarter
Dec 13
New
Dec 19
First Quarter

Hourly Weather History & Observations

Time (CST) Temp. Windchill Dew Point Humidity Pressure Visibility Wind Dir Wind Speed Gust Speed Precip Events Conditions
12:53 AM 51.1 °F - 48.9 °F 92% 30.14 in 10.0 mi NW 5.8 mph - N/A   Clear
1:53 AM 50.0 °F - 46.9 °F 89% 30.13 in 10.0 mi NW 5.8 mph - N/A   Clear
2:53 AM 48.9 °F - 46.0 °F 90% 30.14 in 10.0 mi NW 5.8 mph - N/A   Clear
3:53 AM 46.9 °F - 44.1 °F 90% 30.14 in 10.0 mi NW 3.5 mph - N/A   Clear
4:53 AM 48.0 °F - 45.0 °F 89% 30.14 in 10.0 mi NW 3.5 mph - N/A   Clear
5:53 AM 45.0 °F 43.5 °F 44.1 °F 97% 30.15 in 8.0 mi NW 3.5 mph - N/A   Clear
6:53 AM 48.9 °F - 46.0 °F 90% 30.17 in 10.0 mi NNW 3.5 mph - N/A   Clear
7:53 AM 54.0 °F - 46.9 °F 77% 30.19 in 10.0 mi NNW 6.9 mph - N/A   Clear
8:53 AM 62.1 °F - 48.0 °F 60% 30.19 in 10.0 mi North 6.9 mph - N/A   Clear
9:53 AM 66.9 °F - 46.9 °F 49% 30.19 in 10.0 mi NNW 8.1 mph - N/A   Clear
10:53 AM 71.1 °F - 46.9 °F 42% 30.17 in 10.0 mi North 6.9 mph - N/A   Clear
11:53 AM 72.0 °F - 46.9 °F 41% 30.14 in 10.0 mi North 5.8 mph - N/A   Clear
12:53 PM 73.9 °F - 45.0 °F 35% 30.13 in 10.0 mi NW 10.4 mph - N/A   Scattered Clouds
1:53 PM 73.9 °F - 44.1 °F 34% 30.12 in 10.0 mi North 6.9 mph - N/A   Mostly Cloudy
2:53 PM 73.0 °F - 44.1 °F 35% 30.12 in 10.0 mi NE 4.6 mph - N/A   Mostly Cloudy
3:53 PM 72.0 °F - 43.0 °F 35% 30.12 in 10.0 mi North 8.1 mph - N/A   Partly Cloudy
4:53 PM 64.0 °F - 44.1 °F 48% 30.14 in 10.0 mi NW 3.5 mph - N/A   Clear
5:53 PM 60.1 °F - 44.1 °F 55% 30.15 in 10.0 mi Calm Calm - N/A   Clear
6:53 PM 55.0 °F - 45.0 °F 69% 30.17 in 10.0 mi Calm Calm - N/A   Clear
7:53 PM 52.0 °F - 44.1 °F 74% 30.17 in 10.0 mi NW 3.5 mph - N/A   Clear
8:53 PM 53.1 °F - 45.0 °F 74% 30.19 in 10.0 mi Calm Calm - N/A   Clear
9:53 PM 52.0 °F - 45.0 °F 77% 30.19 in 10.0 mi NW 3.5 mph - N/A   Clear
10:53 PM 50.0 °F - 45.0 °F 83% 30.19 in 10.0 mi Calm Calm - N/A   Clear
11:53 PM 50.0 °F - 45.0 °F 83% 30.19 in 10.0 mi NNW 4.6 mph - N/A   Clear